| time (UTC) | temp C | wind direction | speed KPH | gust KPH | rain 1hr cm | rain 24hr cm | rain mn cm | humidity % | barometer mb |
| 20260503194010 | 13 | 280 | 1.6 | 9.7 | 0.00 | 0.00 | 0.00 | 48 | 1009.7 |
| 20260503193511 | 13 | 301 | 0.0 | 11.3 | 0.00 | 0.00 | 0.00 | 48 | 1009.7 |
| 20260503193033 | 13 | 277 | 3.2 | 12.9 | 0.00 | 0.00 | 0.00 | 48 | 1009.9 |
| 20260503192512 | 13 | 274 | 3.2 | 14.5 | 0.00 | 0.00 | 0.00 | 47 | 1010.0 |
| 20260503192011 | 13 | 278 | 6.4 | 14.5 | 0.00 | 0.00 | 0.00 | 46 | 1009.9 |
| 20260503191529 | 13 | 268 | 3.2 | 16.1 | 0.00 | 0.00 | 0.00 | 47 | 1009.9 |
| 20260503191013 | 13 | 263 | 6.4 | 16.1 | 0.00 | 0.00 | 0.00 | 46 | 1010.0 |
| 20260503190513 | 13 | 270 | 3.2 | 17.7 | 0.00 | 0.00 | 0.00 | 46 | 1010.0 |
| 20260503190031 | 13 | 256 | 4.8 | 17.7 | 0.00 | 0.00 | 0.00 | 47 | 1010.1 |
| 20260503185512 | 13 | 264 | 4.8 | 17.7 | 0.00 | 0.00 | 0.00 | 48 | 1010.2 |
| 20260503185013 | 13 | 245 | 4.8 | 16.1 | 0.00 | 0.00 | 0.00 | 46 | 1010.2 |
| 20260503184539 | 13 | 249 | 4.8 | 12.9 | 0.00 | 0.00 | 0.00 | 45 | 1010.3 |
| 20260503184013 | 13 | 190 | 3.2 | 12.9 | 0.00 | 0.00 | 0.00 | 46 | 1010.3 |
| 20260503183512 | 13 | 165 | 3.2 | 11.3 | 0.00 | 0.00 | 0.00 | 47 | 1010.2 |
| 20260503183030 | 13 | 233 | 3.2 | 17.7 | 0.00 | 0.00 | 0.00 | 47 | 1010.2 |
| 20260503182511 | 13 | 224 | 6.4 | 17.7 | 0.00 | 0.00 | 0.00 | 48 | 1010.3 |
| 20260503182017 | 13 | 269 | 6.4 | 22.5 | 0.00 | 0.00 | 0.00 | 49 | 1010.4 |
| 20260503181531 | 13 | 272 | 8.0 | 30.6 | 0.00 | 0.00 | 0.00 | 48 | 1010.7 |
| 20260503181010 | 14 | 268 | 12.9 | 30.6 | 0.00 | 0.00 | 0.00 | 46 | 1010.7 |
| 20260503180512 | 15 | 273 | 9.7 | 24.1 | 0.00 | 0.00 | 0.00 | 42 | 1010.4 |
| 20260503180044 | 15 | 271 | 8.0 | 24.1 | 0.00 | 0.00 | 0.00 | 43 | 1010.3 |
| 20260503175513 | 15 | 255 | 6.4 | 20.9 | 0.00 | 0.00 | 0.00 | 44 | 1010.3 |
| 20260503175012 | 15 | 257 | 11.3 | 20.9 | 0.00 | 0.00 | 0.00 | 42 | 1010.4 |
| 20260503174543 | 15 | 301 | 8.0 | 20.9 | 0.00 | 0.00 | 0.00 | 41 | 1010.4 |
| 20260503174010 | 15 | 278 | 6.4 | 20.9 | 0.00 | 0.00 | 0.00 | 40 | 1010.4 |
| 20260503173513 | 15 | 268 | 6.4 | 14.5 | 0.00 | 0.00 | 0.00 | 38 | 1010.4 |
| 20260503173039 | 15 | 257 | 6.4 | 24.1 | 0.00 | 0.00 | 0.00 | 38 | 1010.3 |
| 20260503172510 | 15 | 239 | 6.4 | 24.1 | 0.00 | 0.00 | 0.00 | 38 | 1010.4 |
| 20260503172011 | 16 | 270 | 8.0 | 22.5 | 0.00 | 0.00 | 0.00 | 36 | 1010.3 |
| 20260503171528 | 16 | 152 | 6.4 | 19.3 | 0.00 | 0.00 | 0.00 | 36 | 1010.3 |
| 20260503171013 | 16 | 242 | 8.0 | 17.7 | 0.00 | 0.00 | 0.00 | 37 | 1010.4 |
| 20260503170512 | 16 | 195 | 4.8 | 17.7 | 0.00 | 0.00 | 0.00 | 38 | 1010.3 |
| 20260503151013 | 12 | 266 | 3.2 | 17.7 | 0.00 | 0.00 | 0.00 | 47 | 1012.0 |
| 20260503150517 | 12 | 245 | 4.8 | 20.9 | 0.00 | 0.00 | 0.00 | 47 | 1012.0 |
| 20260503131012 | 6 | 231 | 1.6 | 9.7 | 0.00 | 0.00 | 0.00 | 63 | 1013.3 |
| 20260503130511 | 6 | 170 | 1.6 | 9.7 | 0.00 | 0.00 | 0.00 | 63 | 1013.5 |
| 20260503110513 | 1 | 0 | 0.0 | 6.4 | 0.00 | 0.00 | 0.00 | 76 | 1013.6 |
| 20260503090513 | 0 | 0 | 0.0 | 0.0 | 0.00 | 0.00 | 0.00 | 82 | 1014.1 |
| 20260503081539 | 0 | 0 | 0.0 | 0.0 | 0.00 | 0.00 | 0.00 | 80 | 1014.0 |
| 20260503081013 | 0 | 0 | 0.0 | 0.0 | 0.00 | 0.00 | 0.00 | 80 | 1014.1 |
| 20260503080510 | 0 | 0 | 0.0 | 0.0 | 0.00 | 0.00 | 0.00 | 80 | 1014.0 |
| 20260503072514 | 0 | 0 | 0.0 | 0.0 | 0.00 | 0.00 | 0.00 | 76 | 1014.0 |
| 20260503072012 | 0 | 0 | 0.0 | 0.0 | 0.00 | 0.00 | 0.00 | 75 | 1014.0 |
| 20260503071529 | 0 | 0 | 0.0 | 0.0 | 0.00 | 0.00 | 0.00 | 75 | 1013.9 |
| 20260503071012 | 0 | 0 | 0.0 | 0.0 | 0.00 | 0.00 | 0.00 | 75 | 1013.8 |
| 20260503070513 | 0 | 0 | 0.0 | 0.0 | 0.00 | 0.00 | 0.00 | 75 | 1013.9 |
| 20260503055013 | 0 | 0 | 0.0 | 1.6 | 0.00 | 0.00 | 0.00 | 74 | 1014.6 |
| 20260503054530 | 0 | 0 | 0.0 | 1.6 | 0.00 | 0.00 | 0.00 | 75 | 1014.7 |
| 20260503054013 | 0 | 0 | 0.0 | 0.0 | 0.00 | 0.00 | 0.00 | 74 | 1014.7 |
| 20260503053513 | 0 | 0 | 0.0 | 0.0 | 0.00 | 0.00 | 0.00 | 74 | 1014.7 |
| 20260503053030 | 0 | 0 | 0.0 | 0.0 | 0.00 | 0.00 | 0.00 | 74 | 1014.8 |
| 20260503052511 | 0 | 0 | 0.0 | 0.0 | 0.00 | 0.00 | 0.00 | 74 | 1014.9 |
| 20260503052011 | 0 | 0 | 0.0 | 0.0 | 0.00 | 0.00 | 0.00 | 74 | 1015.0 |
| 20260503051536 | 0 | 0 | 0.0 | 0.0 | 0.00 | 0.00 | 0.00 | 73 | 1015.0 |
| 20260503051012 | 0 | 0 | 0.0 | 0.0 | 0.00 | 0.00 | 0.00 | 72 | 1015.0 |
| 20260503050512 | 0 | 0 | 0.0 | 3.2 | 0.00 | 0.00 | 0.00 | 72 | 1015.1 |
| 20260503050030 | 0 | 0 | 0.0 | 3.2 | 0.00 | 0.00 | 0.00 | 72 | 1015.1 |
| 20260503045519 | 1 | 166 | 0.0 | 3.2 | 0.00 | 0.00 | 0.00 | 72 | 1015.1 |
| 20260503045011 | 1 | 0 | 0.0 | 1.6 | 0.00 | 0.00 | 0.00 | 71 | 1015.1 |
| 20260503044532 | 1 | 0 | 0.0 | 0.0 | 0.00 | 0.00 | 0.00 | 71 | 1015.2 |
| 20260503044011 | 1 | 0 | 0.0 | 1.6 | 0.00 | 0.00 | 0.00 | 71 | 1015.2 |
| 20260503043513 | 1 | 0 | 0.0 | 1.6 | 0.00 | 0.00 | 0.00 | 71 | 1015.2 |
| 20260503043030 | 1 | 0 | 0.0 | 3.2 | 0.00 | 0.00 | 0.00 | 70 | 1015.3 |
| 20260503042513 | 1 | 0 | 0.0 | 3.2 | 0.00 | 0.00 | 0.00 | 70 | 1015.3 |
| 20260503042012 | 1 | 0 | 0.0 | 3.2 | 0.00 | 0.00 | 0.00 | 70 | 1015.4 |
| 20260503041533 | 1 | 0 | 0.0 | 3.2 | 0.00 | 0.00 | 0.00 | 69 | 1015.4 |
| 20260503041014 | 1 | 0 | 0.0 | 1.6 | 0.00 | 0.00 | 0.00 | 69 | 1015.4 |
| 20260503040512 | 1 | 0 | 0.0 | 0.0 | 0.00 | 0.00 | 0.00 | 69 | 1015.4 |
| 20260503040033 | 1 | 0 | 0.0 | 0.0 | 0.00 | 0.00 | 0.00 | 69 | 1015.4 |
| 20260503035511 | 1 | 0 | 0.0 | 4.8 | 0.00 | 0.00 | 0.00 | 68 | 1015.4 |
| 20260503035012 | 1 | 0 | 0.0 | 4.8 | 0.00 | 0.00 | 0.00 | 68 | 1015.5 |
| 20260503034532 | 1 | 0 | 0.0 | 3.2 | 0.00 | 0.00 | 0.00 | 67 | 1015.6 |
| 20260503034014 | 1 | 0 | 0.0 | 1.6 | 0.00 | 0.00 | 0.00 | 67 | 1015.5 |
| 20260503033514 | 1 | 0 | 0.0 | 1.6 | 0.00 | 0.00 | 0.00 | 67 | 1015.6 |
| 20260503033036 | 1 | 0 | 0.0 | 3.2 | 0.00 | 0.00 | 0.00 | 67 | 1015.6 |
| 20260503032512 | 1 | 0 | 0.0 | 3.2 | 0.00 | 0.00 | 0.00 | 67 | 1015.6 |
| 20260503032012 | 2 | 0 | 0.0 | 3.2 | 0.00 | 0.00 | 0.00 | 67 | 1015.7 |
| 20260503031530 | 2 | 0 | 0.0 | 3.2 | 0.00 | 0.00 | 0.00 | 66 | 1015.7 |
| 20260503031012 | 1 | 0 | 0.0 | 3.2 | 0.00 | 0.00 | 0.00 | 66 | 1015.7 |
| 20260503030510 | 1 | 200 | 0.0 | 3.2 | 0.00 | 0.00 | 0.00 | 66 | 1015.7 |
| 20260503030047 | 1 | 0 | 0.0 | 1.6 | 0.00 | 0.00 | 0.00 | 66 | 1015.6 |
| 20260503025511 | 1 | 0 | 0.0 | 3.2 | 0.00 | 0.00 | 0.00 | 66 | 1015.7 |
| 20260503025013 | 1 | 0 | 0.0 | 3.2 | 0.00 | 0.00 | 0.00 | 67 | 1015.8 |
| 20260503024535 | 1 | 0 | 0.0 | 0.0 | 0.00 | 0.00 | 0.00 | 67 | 1015.8 |
| 20260503024013 | 1 | 0 | 0.0 | 0.0 | 0.00 | 0.00 | 0.00 | 68 | 1015.9 |
| 20260503023513 | 1 | 0 | 0.0 | 0.0 | 0.00 | 0.00 | 0.00 | 67 | 1016.0 |
| 20260503023033 | 2 | 0 | 0.0 | 0.0 | 0.00 | 0.00 | 0.00 | 69 | 1016.0 |
| 20260503022513 | 2 | 0 | 0.0 | 0.0 | 0.00 | 0.00 | 0.00 | 68 | 1016.1 |
| 20260503022012 | 2 | 0 | 0.0 | 1.6 | 0.00 | 0.00 | 0.00 | 67 | 1016.0 |
| 20260503021534 | 2 | 0 | 0.0 | 1.6 | 0.00 | 0.00 | 0.00 | 66 | 1016.0 |
| 20260503021011 | 2 | 274 | 0.0 | 0.0 | 0.00 | 0.00 | 0.00 | 64 | 1016.0 |
| 20260503020511 | 2 | 0 | 0.0 | 0.0 | 0.00 | 0.00 | 0.00 | 64 | 1016.0 |
| 20260503020031 | 2 | 0 | 0.0 | 0.0 | 0.00 | 0.00 | 0.00 | 65 | 1016.1 |
| 20260503015510 | 2 | 0 | 0.0 | 0.0 | 0.00 | 0.00 | 0.00 | 65 | 1016.0 |
| 20260503015013 | 2 | 0 | 0.0 | 0.0 | 0.00 | 0.00 | 0.00 | 63 | 1016.0 |
| 20260503014530 | 2 | 0 | 0.0 | 0.0 | 0.00 | 0.00 | 0.00 | 62 | 1016.0 |
| 20260503014010 | 2 | 0 | 0.0 | 0.0 | 0.00 | 0.00 | 0.00 | 61 | 1016.0 |
| 20260503013511 | 2 | 0 | 0.0 | 0.0 | 0.00 | 0.00 | 0.00 | 59 | 1015.9 |
| 20260503013028 | 3 | 0 | 0.0 | 0.0 | 0.00 | 0.00 | 0.00 | 60 | 1016.0 |
| 20260503012513 | 3 | 0 | 0.0 | 0.0 | 0.00 | 0.00 | 0.00 | 61 | 1015.9 |
| 20260503012012 | 3 | 0 | 0.0 | 0.0 | 0.00 | 0.00 | 0.00 | 57 | 1015.9 |
| 20260503011528 | 3 | 0 | 0.0 | 0.0 | 0.00 | 0.00 | 0.00 | 57 | 1016.0 |
| 20260503011012 | 3 | 0 | 0.0 | 0.0 | 0.00 | 0.00 | 0.00 | 58 | 1015.9 |
| 20260503010514 | 3 | 0 | 0.0 | 0.0 | 0.00 | 0.00 | 0.00 | 57 | 1015.9 |
| 20260503010031 | 4 | 0 | 0.0 | 0.0 | 0.00 | 0.00 | 0.00 | 56 | 1015.8 |
| 20260503005511 | 4 | 0 | 0.0 | 0.0 | 0.00 | 0.00 | 0.00 | 56 | 1015.8 |
| 20260503005012 | 5 | 0 | 0.0 | 0.0 | 0.00 | 0.00 | 0.00 | 58 | 1015.9 |
| 20260503004530 | 5 | 0 | 0.0 | 1.6 | 0.00 | 0.00 | 0.00 | 53 | 1015.8 |
| 20260503004012 | 5 | 0 | 0.0 | 1.6 | 0.00 | 0.00 | 0.00 | 54 | 1015.8 |
| 20260503003511 | 5 | 0 | 0.0 | 0.0 | 0.00 | 0.00 | 0.00 | 51 | 1015.8 |
| 20260503003032 | 5 | 0 | 0.0 | 0.0 | 0.00 | 0.00 | 0.00 | 51 | 1015.8 |
| 20260503002513 | 5 | 0 | 0.0 | 0.0 | 0.00 | 0.00 | 0.00 | 51 | 1015.8 |
| 20260503002013 | 5 | 0 | 0.0 | 3.2 | 0.00 | 0.00 | 0.00 | 48 | 1015.8 |
| 20260503001528 | 5 | 0 | 0.0 | 3.2 | 0.00 | 0.00 | 0.00 | 46 | 1015.8 |
| 20260503001012 | 6 | 276 | 0.0 | 3.2 | 0.00 | 0.00 | 0.00 | 46 | 1015.7 |
| 20260503000509 | 6 | 0 | 0.0 | 3.2 | 0.00 | 0.00 | 0.00 | 45 | 1015.7 |
| 20260503000033 | 6 | 0 | 0.0 | 4.8 | 0.00 | 0.00 | 0.00 | 44 | 1015.7 |
| 20260502235513 | 6 | 276 | 1.6 | 6.4 | 0.00 | 0.00 | 0.00 | 45 | 1015.7 |
| 20260502235013 | 6 | 278 | 3.2 | 6.4 | 0.00 | 0.00 | 0.00 | 43 | 1015.7 |
| 20260502234532 | 6 | 0 | 0.0 | 4.8 | 0.00 | 0.00 | 0.00 | 45 | 1015.6 |
| 20260502234011 | 6 | 0 | 1.6 | 6.4 | 0.00 | 0.00 | 0.00 | 46 | 1015.7 |
| 20260502233512 | 6 | 320 | 1.6 | 6.4 | 0.00 | 0.00 | 0.00 | 45 | 1015.7 |
| 20260502233029 | 6 | 316 | 1.6 | 6.4 | 0.00 | 0.00 | 0.00 | 42 | 1015.7 |
| 20260502232511 | 6 | 321 | 0.0 | 4.8 | 0.00 | 0.00 | 0.00 | 42 | 1015.8 |
| 20260502232012 | 6 | 329 | 1.6 | 6.4 | 0.00 | 0.00 | 0.00 | 42 | 1015.8 |
| 20260502231531 | 6 | 307 | 1.6 | 8.0 | 0.00 | 0.00 | 0.00 | 43 | 1015.8 |
| 20260502231013 | 6 | 281 | 3.2 | 8.0 | 0.00 | 0.00 | 0.00 | 43 | 1015.9 |
| 20260502230512 | 7 | 318 | 0.0 | 11.3 | 0.00 | 0.00 | 0.00 | 43 | 1015.9 |
| 20260502230030 | 7 | 306 | 1.6 | 11.3 | 0.00 | 0.00 | 0.00 | 43 | 1015.9 |
| 20260502225512 | 7 | 274 | 1.6 | 11.3 | 0.00 | 0.00 | 0.00 | 42 | 1015.9 |
| 20260502225012 | 7 | 0 | 1.6 | 12.9 | 0.00 | 0.00 | 0.00 | 42 | 1015.9 |
| 20260502224532 | 7 | 267 | 3.2 | 12.9 | 0.00 | 0.00 | 0.00 | 39 | 1015.9 |
| 20260502224012 | 7 | 263 | 1.6 | 12.9 | 0.00 | 0.00 | 0.00 | 40 | 1015.9 |
| 20260502223511 | 7 | 284 | 4.8 | 12.9 | 0.00 | 0.00 | 0.00 | 37 | 1016.0 |
| 20260502223029 | 7 | 276 | 3.2 | 11.3 | 0.00 | 0.00 | 0.00 | 38 | 1016.0 |
| 20260502222512 | 7 | 272 | 3.2 | 9.7 | 0.00 | 0.00 | 0.00 | 40 | 1016.1 |
| 20260502222011 | 7 | 280 | 3.2 | 14.5 | 0.00 | 0.00 | 0.00 | 41 | 1016.2 |
| 20260502221530 | 7 | 274 | 3.2 | 14.5 | 0.00 | 0.00 | 0.00 | 38 | 1016.1 |
| 20260502221012 | 7 | 268 | 6.4 | 14.5 | 0.00 | 0.00 | 0.00 | 38 | 1016.1 |
| 20260502220511 | 7 | 0 | 3.2 | 16.1 | 0.00 | 0.00 | 0.00 | 37 | 1016.0 |
| 20260502220031 | 7 | 339 | 3.2 | 17.7 | 0.00 | 0.00 | 0.00 | 38 | 1016.0 |
| 20260502215511 | 7 | 320 | 4.8 | 17.7 | 0.00 | 0.00 | 0.00 | 39 | 1016.1 |
| 20260502215012 | 7 | 229 | 4.8 | 12.9 | 0.00 | 0.00 | 0.00 | 39 | 1016.1 |
| 20260502214530 | 7 | 279 | 3.2 | 11.3 | 0.00 | 0.00 | 0.00 | 40 | 1016.1 |
| 20260502214011 | 8 | 320 | 3.2 | 9.7 | 0.00 | 0.00 | 0.00 | 38 | 1016.1 |
| 20260502213511 | 8 | 279 | 3.2 | 11.3 | 0.00 | 0.00 | 0.00 | 41 | 1016.1 |
| 20260502213039 | 8 | 325 | 3.2 | 11.3 | 0.00 | 0.00 | 0.00 | 41 | 1016.0 |
| 20260502212511 | 7 | 316 | 3.2 | 12.9 | 0.00 | 0.00 | 0.00 | 41 | 1016.0 |
| 20260502212013 | 8 | 291 | 4.8 | 12.9 | 0.00 | 0.00 | 0.00 | 36 | 1016.0 |
| 20260502211532 | 8 | 333 | 3.2 | 12.9 | 0.00 | 0.00 | 0.00 | 37 | 1016.0 |
| 20260502211013 | 8 | 340 | 3.2 | 12.9 | 0.00 | 0.00 | 0.00 | 38 | 1016.0 |
| 20260502210510 | 7 | 289 | 1.6 | 11.3 | 0.00 | 0.00 | 0.00 | 35 | 1016.1 |
| 20260502210027 | 8 | 314 | 4.8 | 9.7 | 0.00 | 0.00 | 0.00 | 35 | 1016.2 |
| 20260502205511 | 8 | 2 | 4.8 | 14.5 | 0.00 | 0.00 | 0.00 | 37 | 1016.2 |
| 20260502205011 | 7 | 295 | 4.8 | 16.1 | 0.00 | 0.00 | 0.00 | 34 | 1016.3 |
| 20260502204532 | 7 | 338 | 6.4 | 16.1 | 0.00 | 0.00 | 0.00 | 33 | 1016.2 |
| 20260502204011 | 7 | 339 | 3.2 | 19.3 | 0.00 | 0.00 | 0.00 | 38 | 1016.2 |
| 20260502203512 | 7 | 293 | 4.8 | 19.3 | 0.00 | 0.00 | 0.00 | 39 | 1016.3 |
| 20260502203032 | 7 | 285 | 6.4 | 19.3 | 0.00 | 0.00 | 0.00 | 37 | 1016.4 |
| 20260502202513 | 7 | 330 | 4.8 | 12.9 | 0.00 | 0.00 | 0.00 | 32 | 1016.3 |
| 20260502202011 | 8 | 316 | 3.2 | 11.3 | 0.00 | 0.00 | 0.00 | 37 | 1016.4 |
| 20260502201533 | 7 | 336 | 1.6 | 12.9 | 0.00 | 0.00 | 0.00 | 43 | 1016.3 |
| 20260502201012 | 7 | 331 | 4.8 | 16.1 | 0.00 | 0.00 | 0.00 | 43 | 1016.4 |
| 20260502200512 | 7 | 281 | 4.8 | 16.1 | 0.00 | 0.00 | 0.00 | 39 | 1016.6 |
| 20260502200030 | 7 | 247 | 4.8 | 11.3 | 0.00 | 0.00 | 0.00 | 40 | 1016.6 |
| 20260502195509 | 8 | 303 | 6.4 | 12.9 | 0.00 | 0.00 | 0.00 | 42 | 1016.6 |
| 20260502195011 | 7 | 323 | 4.8 | 12.9 | 0.00 | 0.00 | 0.00 | 44 | 1016.6 |
| 20260502194530 | 7 | 308 | 4.8 | 12.9 | 0.00 | 0.00 | 0.00 | 43 | 1016.7 |